Allentown, PA

5:36 PM EST on November 18, 2017 (GMT -0500)
Lehigh Valley International

Weather History for KABE - March, 2013

Change the Weather History Date:

Sunday, March 3, 2013

  Actual Average Record
Temperature  
Mean Temperature 31 °F 35 °F  
Max Temperature 37 °F 45 °F 71 °F (1991)
Min Temperature 24 °F 25 °F 8 °F (1950)
Degree Days  
Heating Degree Days 34 30  
Month to date heating degree days 95 92  
Since 1 July heating degree days 4050 4401  
Cooling Degree Days 0 0  
Month to date cooling degree days 0 0  
Year to date cooling degree days 0 0  
Moisture  
Dew Point 17 °F    
Average Humidity 56    
Maximum Humidity 68    
Minimum Humidity 44    
Precipitation  
Precipitation T in 0.10 in 1.32 in (1960)
Month to date precipitation T 0.29  
Year to date precipitation 6.06 6.02  
Snow  
Snow T in 0.20 in 13.80 in (1960)
Month to date snowfall T 0.7  
Since 1 July snowfall 16.9 27.7  
Snow Depth 0.00 in    
Sea Level Pressure  
Sea Level Pressure 29.78 in    
Wind  
Wind Speed 12 mph (NW)    
Max Wind Speed 22 mph    
Max Gust Speed 28 mph    
Visibility 10 miles    
Events      
T = Trace of Precipitation, MM = Missing Value Source: NWS Daily Summary

Daily Weather History Graph

Daily Weather History Graph

Search for Another Location

Airport or City:

Trip Planner

Search our weather history database for the weather conditions in past years. The results will help you decide how hot, cold, wet, or windy it might be!

Date:

Astronomy

Mar. 03, 2013 Rise Set
Actual Time 6:32 AM EST 5:55 PM EST
Civil Twilight 6:04 AM EST 6:23 PM EST
Nautical Twilight 5:33 AM EST 6:54 PM EST
Astronomical Twilight 5:01 AM EST 7:26 PM EST
Moon No Moon Rise 9:43 AM EST (3/3)
Length of Visible Light 12h 18m
Length of Day
11h 23m
Waning Gibbous, 64% of the Moon is Illuminated
Mar 3
Waning Gibbous
Mar 4
Last Quarter
Mar 11
New
Mar 19
First Quarter
Mar 27
Full

Hourly Weather History & Observations

Time (EST) Temp. Windchill Dew Point Humidity Pressure Visibility Wind Dir Wind Speed Gust Speed Precip Events Conditions
12:51 AM 28.9 °F 18.2 °F 17.1 °F 61% 29.80 in 10.0 mi NNW 13.8 mph - N/A   Overcast
1:51 AM 28.9 °F 19.8 °F 16.0 °F 58% 29.80 in 10.0 mi NW 10.4 mph 19.6 mph N/A   Overcast
2:51 AM 27.0 °F 18.7 °F 16.0 °F 63% 29.78 in 10.0 mi NW 8.1 mph - N/A   Partly Cloudy
3:51 AM 26.1 °F 17.6 °F 15.1 °F 63% 29.78 in 10.0 mi NW 8.1 mph - N/A   Clear
4:51 AM 26.1 °F 17.6 °F 16.0 °F 66% 29.78 in 10.0 mi WNW 8.1 mph - N/A   Clear
5:51 AM 25.0 °F 18.1 °F 16.0 °F 69% 29.79 in 10.0 mi WNW 5.8 mph - N/A   Clear
6:51 AM 27.0 °F 17.3 °F 16.0 °F 63% 29.79 in 10.0 mi WNW 10.4 mph - N/A   Mostly Cloudy
7:51 AM 28.0 °F 18.6 °F 17.1 °F 63% 29.80 in 10.0 mi NW 10.4 mph 16.1 mph N/A   Mostly Cloudy
8:51 AM 30.0 °F 19.5 °F 17.1 °F 59% 29.79 in 10.0 mi NW 13.8 mph - N/A   Overcast
9:51 AM 30.0 °F 19.5 °F 16.0 °F 56% 29.79 in 10.0 mi NW 13.8 mph 21.9 mph N/A   Overcast
10:51 AM 30.9 °F 19.1 °F 16.0 °F 54% 29.79 in 10.0 mi NNW 18.4 mph 25.3 mph N/A   Overcast
11:51 AM 33.1 °F 23.9 °F 16.0 °F 50% 29.78 in 10.0 mi NW 12.7 mph - N/A   Overcast
12:51 PM 35.1 °F 27.4 °F 16.0 °F 46% 29.75 in 10.0 mi NNW 10.4 mph - N/A   Overcast
1:51 PM 35.1 °F 24.8 °F 17.1 °F 48% 29.74 in 10.0 mi WNW 17.3 mph - N/A   Overcast
2:51 PM 34.0 °F 24.2 °F 17.1 °F 50% 29.75 in 10.0 mi NW 15.0 mph 23.0 mph 0.00 in   Overcast
3:51 PM 36.0 °F 27.5 °F 17.1 °F 46% 29.74 in 10.0 mi NNW 12.7 mph - N/A   Overcast
4:51 PM 35.6 °F 27.1 °F 17.6 °F 48% 29.74 in 10.0 mi NW 12.7 mph - N/A   Overcast
5:51 PM 33.1 °F 23.9 °F 16.0 °F 50% 29.76 in 10.0 mi NW 12.7 mph 19.6 mph N/A   Overcast
6:51 PM 32.0 °F 25.6 °F 17.1 °F 54% 29.79 in 10.0 mi NW 6.9 mph - N/A   Overcast
7:51 PM 33.1 °F 24.4 °F 17.1 °F 52% 29.80 in 10.0 mi NW 11.5 mph 23.0 mph N/A   Overcast
8:51 PM 32.0 °F 22.5 °F 17.1 °F 54% 29.82 in 10.0 mi NNW 12.7 mph - N/A   Overcast
9:51 PM 30.9 °F 20.7 °F 17.1 °F 57% 29.82 in 10.0 mi NW 13.8 mph - N/A   Overcast
10:51 PM 30.0 °F 21.1 °F 17.1 °F 59% 29.82 in 10.0 mi NNW 10.4 mph - N/A   Overcast
11:51 PM 30.0 °F 21.1 °F 18.0 °F 61% 29.83 in 10.0 mi NW 10.4 mph - N/A   Overcast